Location: Bonnesvalyn
(49.1218°N, 3.3177°E)
Time: 09:19:09
(UTC+00:00)

Cosmos 883 Rocket - Pass Details

Date: 09 February 2023
Orbit: 950 x 995 km, 83.0° (Epoch: 23 March)

Event Time Altitude Azimuth Distance (km) Brightness Sun altitude
Rises 18:51:25 0° 187° (S) 3,675 7.6 -19.2°
Reaches altitude 10° 18:53:54 10° 188° (S) 2,736 6.9 -19.6°
Maximum altitude 19:00:12 88° 274° (W) 1,000 4.5 -20.6°
Drops below altitude 10° 19:06:37 10° 9° (N) 2,773 6.8 -21.7°
Sets 19:09:09 0° 10° (N) 3,727 7.5 -22.1°
